Location: Katowice
(50.2611°N, 19.0242°E)
Time: 18:39:12
(UTC+02:00)

Explorer 7 - Pass Details

Date: 27 August 2019
Orbit: 485 x 680 km, 50.3° (Epoch: 22 September)

Event Time Altitude Azimuth Distance (km) Brightness Sun altitude
Rises 13:33:52 0° 285° (WNW) 2,943 10.6 48.6°
Reaches altitude 10° 13:36:19 10° 280° (W) 2,002 9.9 48.5°
Maximum altitude 13:40:42 46° 207° (SSW) 807 10.9 48.2°
Drops below altitude 10° 13:44:50 10° 134° (SE) 1,875 9.9 48.0°
Sets 13:47:04 0° 128° (SE) 2,735 10.5 47.8°
